Regional Weather Roundup
Issued by NWS

Home | Current Version | Previous Version | Text Only | Print | Product List | Glossary On
Versions: 1 2 3 4 5 6 7 8 9 10 11 12 13 14 15 16 17 18 19 20 21 22 23 24 25 26 27 28 29 30 31 32 33 34 35 36 37 38 39 40 41 42 43 44 45 46 47 48
000
ASUS45 KREV 211610
RWRNV
NEVADA REGIONAL WEATHER ROUNDUP
NATIONAL WEATHER SERVICE RENO NV
800 AM PST SUN DEC 21 2014

NOTE: "FAIR" INDICATES FEW OR NO CLOUDS BELOW 12,000 FEET WITH NO
SIGNIFICANT WEATHER AND/OR OBSTRUCTIONS TO VISIBILITY.

NVZ001-003-004-211700-
WESTERN NEVADA

CITY           SKY/WX    TMP DP  RH WIND       PRES   REMARKS
RENO           MOCLDY    54  40  59 NW17      30.18R
CARSON CITY    FAIR      55  36  47 W15G32    30.19R
MINDEN         CLOUDY    55  37  50 NW9G18    30.21
SLIDE MTN        N/A     32  32 100 NW36        N/A
PYRAMID LAKE     N/A     48 N/A N/A CALM        N/A
FALLON         MOCLDY    45  37  73 S8        30.16R
LOVELOCK       CLOUDY    41  39  93 CALM      30.15R
HAWTHORNE      CLEAR     36  32  87 CALM      30.18S
$$

NVZ002-CAZ072-073-211700-
NORTHERN AND CENTRAL SIERRA

CITY           SKY/WX    TMP DP  RH WIND       PRES   REMARKS
S. LAKE TAHOE  MOCLDY    45  38  76 SW14G21   30.27R
TRUCKEE        MOCLDY    36  36 100 CALM      30.28F
SQUAW VLY 8000   N/A     36  34  93 VRB18       N/A
SUSANVILLE     PTCLDY    45  41  87 CALM      30.19R
BLUE CANYON    LGT RAIN  43  41  93 S6        30.32R VSB 1/2
MAMMOTH LAKES  FAIR      30  30 100 SE3       30.28R
BRIDGEPORT     FAIR      44  31  60 VRB3      30.23S
$$

NVZ030-031-036-211700-
NORTHERN NEVADA

CITY           SKY/WX    TMP DP  RH WIND       PRES   REMARKS
ELKO           CLOUDY    44  38  79 CALM      30.05R
WINNEMUCCA     CLOUDY    49  39  68 SW10      30.09R
WENDOVER       CLOUDY    39  34  81 N6        29.96R
$$

NVZ035-037-211700-
CENTRAL NEVADA

CITY           SKY/WX    TMP DP  RH WIND       PRES   REMARKS
ELY            CLOUDY    37  35  92 SE3       30.13S
EUREKA           N/A     45  36  70 SW6       30.15R
$$

NVZ013-014-211700-
SOUTH CENTRAL NEVADA

CITY           SKY/WX    TMP DP  RH WIND       PRES   REMARKS
TONOPAH        MOCLDY    30  27  88 VRB6      30.18F
$$

NVZ017-020-022-211700-
SOUTHERN NEVADA

CITY           SKY/WX    TMP DP  RH WIND       PRES   REMARKS
LAS VEGAS      CLOUDY    46  37  71 W5        30.12R
N. LAS VEGAS   CLOUDY    43  36  76 N6        30.15R
NELLIS AFB     CLOUDY    41  38  90 N5        30.17R
HENDERSON      CLOUDY    45  37  73 SW10      30.16R
MERCURY        CLOUDY    38  35  89 E5        30.17R
$$



USA.gov is the U.S. government's official web portal to all federal, state and local government web resources and services.